CAPE
0 0 0 1 0 2 9 32 46 107 0 8 54 125 141 165 184 468 743 674 630 331 257 195 187 303 154 133 104 90 88 93 85 52 21 47 0 0 0 0 0 0 0 0
0 0 0 0 6 1 3 22 68 0 0 0 12 81 55 109 75 93 222 857 933 611 384 266 360 356 272 174 129 69 92 88 98 71 48 31 5 0 5 5 0 0 0 0
240 13 3 9 17 0 0 35 9 9 0 0 0 39 37 55 32 20 77 181 697 732 518 318 464 437 320 233 259 139 124 112 167 117 61 50 41 0 2 12 11 2 1 1
0 0 2 17 0 0 0 0 0 0 0 8 2 1 8 47 48 10 73 9 158 394 449 287 251 292 239 222 200 200 250 234 259 133 86 56 52 40 9 24 15 11 14 11
2 0 0 2 0 0 0 0 0 0 0 10 6 0 1 36 22 38 63 71 0 43 301 375 278 230 229 225 333 480 466 281 166 96 29 91 77 55 47 66 40 16 12 12
0 0 0 0 0 0 0 0 0 0 0 5 33 0 0 0 2 5 21 77 107 136 198 674 336 291 183 302 444 253 321 252 204 148 49 111 141 85 78 62 83 12 4 8
0 0 0 0 0 0 0 0 0 0 0 0 0 2 0 0 26 34 86 65 77 63 152 490 292 212 171 330 378 277 355 230 196 124 93 130 151 161 138 133 80 10 1 0
0 0 0 0 0 0 0 0 0 0 0 0 0 0 0 0 0 10 42 62 65 108 174 138 271 222 244 130 349 534 443 208 138 167 127 142 176 161 117 104 64 0 0 0
10 0 0 0 0 0 0 0 0 0 0 0 4 0 0 0 0 0 0 7 26 67 183 178 307 194 163 128 143 168 111 146 107 100 179 153 166 154 85 95 14 0 0 0
0 0 0 0 0 0 0 0 0 0 0 0 2 0 0 0 0 0 0 1 7 21 20 27 56 25 33 96 114 281 134 86 109 93 100 99 138 115 106 77 0 0 0 0
0 0 0 0 0 0 0 0 0 0 0 0 0 0 0 0 0 0 0 0 5 0 0 0 11 45 53 15 10 15 55 58 134 62 53 41 57 86 76 42 27 3 0 0
0 0 0 0 0 0 0 0 0 0 0 0 0 0 0 0 0 0 0 0 0 0 1 2 4 7 19 109 38 26 12 64 40 53 45 24 24 14 17 61 76 59 37 10
0 12 0 0 0 0 0 0 0 0 0 0 0 0 0 0 0 0 0 4 4 0 0 0 0 7 58 32 62 37 12 28 106 64 16 31 3 0 0 36 77 80 55 32
9 5 0 0 0 4 0 0 0 0 0 0 0 0 0 0 0 0 0 0 0 0 0 0 1 0 1 9 6 25 23 18 21 4 1 10 29 36 47 65 65 95 78 46
12 8 16 7 0 0 0 5 0 0 0 0 0 0 0 0 0 0 0 0 0 0 0 0 2 12 16 8 6 7 15 10 2 0 0 11 16 26 58 50 55 46 58 76
13 9 7 5 2 3 2 10 0 0 0 0 0 0 0 0 0 0 0 0 0 0 0 0 0 0 3 41 57 34 22 22 20 7 0 0 0 18 30 36 55 52 45 54
9 7 8 6 4 3 4 15 15 7 2 2 0 0 0 0 0 0 0 0 0 0 0 0 0 0 0 0 2 27 28 42 45 28 21 10 0 13 13 24 30 28 31 52
3 5 3 3 4 3 7 15 6 15 8 2 2 0 0 0 0 0 0 0 0 0 0 0 0 0 0 0 0 2 27 30 35 53 38 35 36 21 26 14 20 27 43 38
2 6 2 2 3 1 1 0 0 2 9 0 0 0 0 0 0 0 0 0 0 0 0 0 0 0 0 0 0 0 1 47 66 62 65 34 5 12 28 19 77 56 11 4
0 0 1 2 2 0 0 0 0 0 0 0 0 0 0 0 0 0 0 0 0 0 0 0 0 0 0 0 0 0 0 0 30 79 88 71 72 59 53 50 43 41 50 46
1 2 7 7 2 16 116 61 0 64 0 0 0 0 0 0 1 0 0 0 0 0 0 0 0 0 0 0 0 0 0 0 0 0 0 52 77 54 53 96 99 96 38 3
0 3 12 25 29 19 43 75 40 6 0 0 0 0 0 1 0 0 9 0 0 0 0 0 0 0 0 0 0 0 0 0 0 0 0 0 0 10 57 70 63 61 46 13
1 1 4 11 15 11 14 16 7 0 0 0 0 0 0 0 0 0 0 0 0 0 0 0 0 0 0 0 0 0 0 0 0 0 0 0 0 0 0 0 0 0 1 4
0 1 2 2 4 11 19 30 9 8 1 0 17 0 0 0 0 0 0 0 0 0 0 0 0 0 0 0 0 0 0 0 0 0 0 0 0 0 0 0 0 0 0 0
0 1 1 2 7 18 20 23 13 0 8 0 0 0 0 0 0 0 0 0 0 0 0 0 0 0 0 0 0 0 0 0 0 0 0 0 0 0 0 0 0 0 0 0
2 1 1 1 3 6 6 3 2 0 0 0 0 0 0 0 0 0 0 0 0 0 0 0 0 0 0 0 0 0 0 0 0 0 0 0 0 0 0 0 0 0 0 0
0 0 0 0 0 1 1 0 0 0 0 0 0 0 0 0 0 0 0 0 0 0 0 0 0 0 0 0 0 0 0 0 0 0 0 0 0 0 0 0 0 0 0 0
CIN
0 0 -3 -4 -1 -10 -3 -100 -28 -12 -6 -24 -47 -87 -43 -74 -136 -31 -18 -31 -25 -92 -102 -139 -146 -63 -78 -44 -51 -83 -79 -69 -88 -19 -25 -92 0 0 0 0 0 0 0 0
0 -71 0 0 -27 -12 -31 -17 -16 -1 0 0 -16 -38 -82 -51 -25 -18 -6 -12 -38 -81 -104 -122 -82 -97 -94 -88 -75 -77 -97 -94 -61 -38 -23 -125 -35 0 -101 -91 0 0 0 0
-1 -4 -9 -17 -9 -1 -4 -17 -1 -5 0 0 0 -115 -25 -55 -13 -39 -3 0 0 -19 -71 -158 -98 -83 -108 -125 -78 -102 -120 -108 -74 -90 -46 -28 -16 -1 -22 -94 -82 -88 -23 -11
-5 0 -4 -7 0 0 -1 -11 0 0 0 -27 0 -56 -108 -30 -31 -7 -8 -5 -3 0 -50 -116 -119 -115 -105 -100 -107 -112 -89 -94 -107 -94 -76 -46 -35 -21 -58 -92 -92 -87 -82 -70
-5 0 0 -14 0 0 0 0 0 0 -2 -18 -47 0 0 -74 -84 -31 -33 -21 0 -2 -1 -15 -107 -123 -115 -100 -96 -62 -55 -105 -137 -132 -89 -103 -51 -40 -27 -57 -69 -86 -93 -71
0 0 0 0 0 0 0 0 0 0 0 -30 -35 -24 0 -5 -34 -104 -70 -28 -2 0 -23 -7 -85 -86 -127 -82 -75 -145 -131 -123 -122 -170 -107 -95 -53 -35 -29 -47 -51 -55 -81 -86
0 0 0 0 0 0 0 0 0 0 0 0 0 -5 0 0 -58 -74 -85 -101 -67 -39 -43 -6 -18 -36 -39 -68 -88 -114 -64 -80 -101 -111 -93 -86 -51 -37 -41 -45 -50 -36 -66 0
0 0 0 0 0 0 0 0 0 0 0 0 -2 0 0 0 0 -19 -38 -62 -89 -83 -24 -45 -21 -30 -48 -66 -47 -25 -31 -65 -70 -112 -102 -70 -51 -40 -45 -54 -58 0 0 0
-4 0 0 0 0 0 0 0 0 0 0 0 -10 0 0 0 0 0 0 -38 -72 -72 0 -3 -1 -12 -11 -33 -48 -50 -77 -38 -59 -95 -81 -59 -49 -42 -61 -47 -90 0 0 0
0 0 0 0 0 0 0 0 0 0 0 0 -2 0 0 0 0 0 0 -14 -103 -97 -66 0 -12 0 -9 -6 -2 -6 -21 -33 -45 -65 -71 -67 -42 -50 -58 -64 0 0 0 0
0 0 0 0 0 0 0 0 0 0 0 0 0 0 0 0 -10 0 0 0 -58 0 0 0 -5 0 -8 -6 -16 -13 -2 -3 -9 -44 -43 -48 -48 -59 -64 -86 -77 -111 0 0
0 0 0 0 0 0 0 0 0 0 0 0 0 0 0 0 0 0 0 0 0 0 0 0 -52 -71 -21 -3 -37 -49 -58 -9 -11 -12 -56 -5 -12 -39 -61 -23 -24 -29 -25 -23
0 0 0 0 0 0 0 0 0 0 0 0 0 0 0 0 0 0 0 -11 -102 0 0 0 0 -92 -27 -36 -8 -15 0 -19 0 -3 -14 -6 -3 0 -1 -62 -31 -50 -40 -31
-6 -1 0 0 0 0 0 0 0 0 0 0 0 0 0 0 0 0 0 0 0 0 0 -18 -19 0 -45 -77 -41 -32 -9 -21 -4 -17 0 -1 0 -8 -16 -26 -44 -57 -53 -39
-1 -1 0 0 -1 0 0 0 0 0 0 0 0 0 0 0 0 0 0 0 0 0 0 0 -44 -60 -81 -115 -88 -67 -30 -26 -13 0 0 0 -13 -3 -6 -27 -47 -66 -65 -24
0 0 -1 0 0 -1 -1 -1 0 0 0 0 0 0 0 0 0 0 0 0 0 0 0 0 0 0 -136 -67 -46 -51 -50 -32 -12 -19 0 0 0 -17 -18 -50 -74 -86 -35 -59
0 -1 0 0 0 0 0 -1 -1 -1 0 0 0 0 0 0 0 0 0 0 0 0 0 0 0 0 0 0 -45 -66 -53 -47 -34 -39 -39 -28 0 -6 -26 -67 -67 -66 -41 -33
0 -1 -1 0 0 0 0 -1 0 -1 -1 0 0 0 0 0 0 0 0 0 0 0 0 0 0 0 0 0 0 0 -55 -58 -53 -32 -35 -29 -11 -6 -22 -46 -36 -31 -14 -5
0 0 0 0 0 0 -1 0 0 0 -1 0 0 0 0 0 0 0 0 0 0 0 0 0 0 0 0 0 0 0 -1 -20 -25 -27 -16 -20 -1 -9 -12 -13 -5 -25 -49 -36
-1 0 0 0 0 0 0 0 0 0 0 0 0 0 0 0 0 0 0 0 0 0 0 0 0 0 0 0 0 0 0 0 -1 -1 -7 -14 -5 -3 -3 -5 -11 -12 -10 -6
0 0 0 0 -1 -1 -5 -8 -1 -10 0 0 0 0 0 0 -1 0 0 0 0 0 0 0 0 0 0 0 0 0 0 0 0 0 0 0 0 0 -3 -5 -5 -4 -17 -104
0 0 -1 -1 -2 -1 -3 -7 -9 -13 0 0 0 0 0 -1 0 0 0 0 0 0 0 0 0 0 0 0 0 0 0 0 0 0 0 0 0 -2 -3 -1 -1 -5 -6 -13
-1 0 0 0 -2 0 0 -18 -16 0 0 0 0 0 0 0 0 0 0 0 0 0 0 0 0 0 0 0 0 0 0 0 0 0 0 0 0 0 0 0 0 0 -2 -4
0 0 -1 0 0 0 0 -22 -20 -6 -1 0 -2 0 0 0 0 0 0 0 0 0 0 0 0 0 0 0 0 0 0 0 0 0 0 0 0 0 0 0 0 0 0 0
0 0 0 -1 0 0 0 0 0 -2 -17 0 0 0 0 0 0 0 0 0 0 0 0 0 0 0 0 0 0 0 0 0 0 0 0 0 0 0 0 0 0 0 0 0
-1 0 0 -1 0 0 -3 -2 0 -3 0 0 0 0 0 0 0 0 0 0 0 0 0 0 0 0 0 0 0 0 0 0 0 0 0 0 0 0 0 0 0 0 0 0
0 0 -1 0 0 -2 -7 0 0 0 0 0 0 0 0 0 0 0 0 0 0 0 0 0 0 0 0 0 0 0 0 0 0 0 0 0 0 0 0 0 0 0 0 0
Wind_Speed
nan nan nan nan nan nan nan nan nan 30 nan nan nan 46 46 55 53 24 26 26 30 31 32 34 33 20 24 31 22 nan nan nan nan nan nan nan nan nan nan nan nan nan nan nan
nan nan nan nan nan nan nan nan nan nan nan nan nan nan nan 57 nan nan 52 22 24 28 31 27 23 24 28 29 27 nan nan nan nan nan nan nan nan nan nan nan nan nan nan nan
32 nan nan nan nan nan nan nan nan nan nan nan nan nan nan nan nan nan nan 54 49 32 31 32 31 33 29 29 29 27 25 24 20 20 nan nan nan nan nan nan nan nan nan nan
nan nan nan nan nan nan nan nan nan nan nan nan nan nan nan nan nan nan nan nan 68 55 40 38 40 37 32 28 28 29 25 23 24 21 nan nan nan nan nan nan nan nan nan nan
nan nan nan nan nan nan nan nan nan nan nan nan nan nan nan nan nan nan nan nan nan nan 58 37 36 38 30 29 30 26 19 21 22 nan nan nan nan nan nan nan nan nan nan nan
nan nan nan nan nan nan nan nan nan nan nan nan nan nan nan nan nan nan nan nan 40 31 35 38 32 33 35 27 26 19 21 23 29 28 nan 20 25 nan nan nan nan nan nan nan
nan nan nan nan nan nan nan nan nan nan nan nan nan nan nan nan nan nan nan nan nan nan 43 34 37 40 36 41 26 26 30 27 28 29 nan 28 28 29 29 30 nan nan nan nan
nan nan nan nan nan nan nan nan nan nan nan nan nan nan nan nan nan nan nan nan nan 38 39 41 36 30 31 32 32 35 34 28 29 30 28 31 29 29 29 27 nan nan nan nan
nan nan nan nan nan nan nan nan nan nan nan nan nan nan nan nan nan nan nan nan nan nan 43 42 46 42 42 40 43 43 34 35 31 31 30 32 31 29 nan nan nan nan nan nan
nan nan nan nan nan nan nan nan nan nan nan nan nan nan nan nan nan nan nan nan nan nan nan nan nan nan nan nan 38 37 37 nan 40 nan 35 nan 37 34 35 nan nan nan nan nan
nan nan nan nan nan nan nan nan nan nan nan nan nan nan nan nan nan nan nan nan nan nan nan nan nan nan nan nan nan nan nan nan 37 nan nan nan nan nan nan nan nan nan nan nan
nan nan nan nan nan nan nan nan nan nan nan nan nan nan nan nan nan nan nan nan nan nan nan nan nan nan nan 55 nan nan nan nan nan nan nan nan nan nan nan nan nan nan nan nan
nan nan nan nan nan nan nan nan nan nan nan nan nan nan nan nan nan nan nan nan nan nan nan nan nan nan nan nan nan nan nan nan 47 nan nan nan nan nan nan nan nan nan nan nan
nan nan nan nan nan nan nan nan nan nan nan nan nan nan nan nan nan nan nan nan nan nan nan nan nan nan nan nan nan nan nan nan nan nan nan nan nan nan nan nan nan nan nan nan
nan nan nan nan nan nan nan nan nan nan nan nan nan nan nan nan nan nan nan nan nan nan nan nan nan nan nan nan nan nan nan nan nan nan nan nan nan nan nan nan nan nan nan nan
nan nan nan nan nan nan nan nan nan nan nan nan nan nan nan nan nan nan nan nan nan nan nan nan nan nan nan nan nan nan nan nan nan nan nan nan nan nan nan nan nan nan nan nan
nan nan nan nan nan nan nan nan nan nan nan nan nan nan nan nan nan nan nan nan nan nan nan nan nan nan nan nan nan nan nan nan nan nan nan nan nan nan nan nan nan nan nan nan
nan nan nan nan nan nan nan nan nan nan nan nan nan nan nan nan nan nan nan nan nan nan nan nan nan nan nan nan nan nan nan nan nan nan nan nan nan nan nan nan nan nan nan nan
nan nan nan nan nan nan nan nan nan nan nan nan nan nan nan nan nan nan nan nan nan nan nan nan nan nan nan nan nan nan nan nan nan nan nan nan nan nan nan nan nan nan nan nan
nan nan nan nan nan nan nan nan nan nan nan nan nan nan nan nan nan nan nan nan nan nan nan nan nan nan nan nan nan nan nan nan nan nan nan nan nan nan nan nan nan nan nan nan
nan nan nan nan nan nan 17 nan nan nan nan nan nan nan nan nan nan nan nan nan nan nan nan nan nan nan nan nan nan nan nan nan nan nan nan nan nan nan nan nan nan nan nan nan
nan nan nan nan nan nan nan nan nan nan nan nan nan nan nan nan nan nan nan nan nan nan nan nan nan nan nan nan nan nan nan nan nan nan nan nan nan nan nan nan nan nan nan nan
nan nan nan nan nan nan nan nan nan nan nan nan nan nan nan nan nan nan nan nan nan nan nan nan nan nan nan nan nan nan nan nan nan nan nan nan nan nan nan nan nan nan nan nan
nan nan nan nan nan nan nan nan nan nan nan nan nan nan nan nan nan nan nan nan nan nan nan nan nan nan nan nan nan nan nan nan nan nan nan nan nan nan nan nan nan nan nan nan
nan nan nan nan nan nan nan nan nan nan nan nan nan nan nan nan nan nan nan nan nan nan nan nan nan nan nan nan nan nan nan nan nan nan nan nan nan nan nan nan nan nan nan nan
nan nan nan nan nan nan nan nan nan nan nan nan nan nan nan nan nan nan nan nan nan nan nan nan nan nan nan nan nan nan nan nan nan nan nan nan nan nan nan nan nan nan nan nan
nan nan nan nan nan nan nan nan nan nan nan nan nan nan nan nan nan nan nan nan nan nan nan nan nan nan nan nan nan nan nan nan nan nan nan nan nan nan nan nan nan nan nan nan
Wind_Direction
nan nan nan nan nan nan nan nan nan 224 nan nan nan 185 185 191 199 248 246 239 225 227 227 226 228 236 244 243 238 nan nan nan nan nan nan nan nan nan nan nan nan nan nan nan
nan nan nan nan nan nan nan nan nan nan nan nan nan nan nan 197 nan nan 194 245 256 241 225 225 222 234 236 240 243 nan nan nan nan nan nan nan nan nan nan nan nan nan nan nan
177 nan nan nan nan nan nan nan nan nan nan nan nan nan nan nan nan nan nan 195 195 235 226 220 227 234 240 242 244 244 244 244 248 253 nan nan nan nan nan nan nan nan nan nan
nan nan nan nan nan nan nan nan nan nan nan nan nan nan nan nan nan nan nan nan 205 183 211 222 223 230 232 240 240 236 235 243 257 262 nan nan nan nan nan nan nan nan nan nan
nan nan nan nan nan nan nan nan nan nan nan nan nan nan nan nan nan nan nan nan nan nan 185 215 231 234 234 227 235 239 240 252 261 nan nan nan nan nan nan nan nan nan nan nan
nan nan nan nan nan nan nan nan nan nan nan nan nan nan nan nan nan nan nan nan 208 179 181 207 230 239 240 238 237 234 244 249 256 283 nan 267 276 nan nan nan nan nan nan nan
nan nan nan nan nan nan nan nan nan nan nan nan nan nan nan nan nan nan nan nan nan nan 202 210 217 233 241 221 216 225 227 244 257 266 nan 281 273 273 275 276 nan nan nan nan
nan nan nan nan nan nan nan nan nan nan nan nan nan nan nan nan nan nan nan nan nan 205 225 217 228 232 227 201 208 227 235 243 250 269 270 265 268 269 273 272 nan nan nan nan
nan nan nan nan nan nan nan nan nan nan nan nan nan nan nan nan nan nan nan nan nan nan 228 222 226 223 226 217 218 219 227 240 242 255 266 266 274 277 nan nan nan nan nan nan
nan nan nan nan nan nan nan nan nan nan nan nan nan nan nan nan nan nan nan nan nan nan nan nan nan nan nan nan 226 222 229 nan 235 nan 258 nan 265 267 273 nan nan nan nan nan
nan nan nan nan nan nan nan nan nan nan nan nan nan nan nan nan nan nan nan nan nan nan nan nan nan nan nan nan nan nan nan nan 249 nan nan nan nan nan nan nan nan nan nan nan
nan nan nan nan nan nan nan nan nan nan nan nan nan nan nan nan nan nan nan nan nan nan nan nan nan nan nan 219 nan nan nan nan nan nan nan nan nan nan nan nan nan nan nan nan
nan nan nan nan nan nan nan nan nan nan nan nan nan nan nan nan nan nan nan nan nan nan nan nan nan nan nan nan nan nan nan nan 255 nan nan nan nan nan nan nan nan nan nan nan
nan nan nan nan nan nan nan nan nan nan nan nan nan nan nan nan nan nan nan nan nan nan nan nan nan nan nan nan nan nan nan nan nan nan nan nan nan nan nan nan nan nan nan nan
nan nan nan nan nan nan nan nan nan nan nan nan nan nan nan nan nan nan nan nan nan nan nan nan nan nan nan nan nan nan nan nan nan nan nan nan nan nan nan nan nan nan nan nan
nan nan nan nan nan nan nan nan nan nan nan nan nan nan nan nan nan nan nan nan nan nan nan nan nan nan nan nan nan nan nan nan nan nan nan nan nan nan nan nan nan nan nan nan
nan nan nan nan nan nan nan nan nan nan nan nan nan nan nan nan nan nan nan nan nan nan nan nan nan nan nan nan nan nan nan nan nan nan nan nan nan nan nan nan nan nan nan nan
nan nan nan nan nan nan nan nan nan nan nan nan nan nan nan nan nan nan nan nan nan nan nan nan nan nan nan nan nan nan nan nan nan nan nan nan nan nan nan nan nan nan nan nan
nan nan nan nan nan nan nan nan nan nan nan nan nan nan nan nan nan nan nan nan nan nan nan nan nan nan nan nan nan nan nan nan nan nan nan nan nan nan nan nan nan nan nan nan
nan nan nan nan nan nan nan nan nan nan nan nan nan nan nan nan nan nan nan nan nan nan nan nan nan nan nan nan nan nan nan nan nan nan nan nan nan nan nan nan nan nan nan nan
nan nan nan nan nan nan 2 nan nan nan nan nan nan nan nan nan nan nan nan nan nan nan nan nan nan nan nan nan nan nan nan nan nan nan nan nan nan nan nan nan nan nan nan nan
nan nan nan nan nan nan nan nan nan nan nan nan nan nan nan nan nan nan nan nan nan nan nan nan nan nan nan nan nan nan nan nan nan nan nan nan nan nan nan nan nan nan nan nan
nan nan nan nan nan nan nan nan nan nan nan nan nan nan nan nan nan nan nan nan nan nan nan nan nan nan nan nan nan nan nan nan nan nan nan nan nan nan nan nan nan nan nan nan
nan nan nan nan nan nan nan nan nan nan nan nan nan nan nan nan nan nan nan nan nan nan nan nan nan nan nan nan nan nan nan nan nan nan nan nan nan nan nan nan nan nan nan nan
nan nan nan nan nan nan nan nan nan nan nan nan nan nan nan nan nan nan nan nan nan nan nan nan nan nan nan nan nan nan nan nan nan nan nan nan nan nan nan nan nan nan nan nan
nan nan nan nan nan nan nan nan nan nan nan nan nan nan nan nan nan nan nan nan nan nan nan nan nan nan nan nan nan nan nan nan nan nan nan nan nan nan nan nan nan nan nan nan
nan nan nan nan nan nan nan nan nan nan nan nan nan nan nan nan nan nan nan nan nan nan nan nan nan nan nan nan nan nan nan nan nan nan nan nan nan nan nan nan nan nan nan nan